Location: Middelsbur
(53.6609°N, 7.5020°E)
Time: 00:13:25
(UTC+00:00)

Cosmos 1606 - Pass Details

Date: 06 July 2020
Orbit: 505 x 527 km, 82.5° (Epoch: 03 August)

Event Time Altitude Azimuth Distance (km) Brightness Sun altitude
Rises 22:28:37 0° 350° (N) 2,665 8.4 -12.4°
Reaches altitude 10° 22:30:46 10° 352° (N) 1,775 6.9 -12.5°
Maximum altitude 22:34:40 74° 77° (ENE) 554 2.8 -12.7°
Enters shadow 22:37:11 21° 161° (SSE) 1,225 3.9 -12.8°
